Silvana, WA

3:17 AM PDT on September 29, 2016 (GMT -0700)
Arlington Municipal

Weather History for KAWO - November, 2014

Change the Weather History Date:

Friday, November 7, 2014

  Actual Average Record
Temperature  
Mean Temperature 47 °F -  
Max Temperature 57 °F 55 °F 64 °F (1999)
Min Temperature 37 °F 38 °F 19 °F (2003)
Degree Days  
Heating Degree Days 18    
Moisture  
Dew Point 40 °F    
Average Humidity 80    
Maximum Humidity 93    
Minimum Humidity 58    
Precipitation  
Precipitation 0.00 in - - ()
Sea Level Pressure  
Sea Level Pressure 30.43 in    
Wind  
Wind Speed 3 mph (NNW)    
Max Wind Speed 10 mph    
Max Gust Speed -    
Visibility 7 miles    
Events      
Averages and records for this station are not official NWS values.
T = Trace of Precipitation, MM = Missing Value Source: NWS Daily Summary

Daily Weather History Graph

Daily Weather History Graph

Search for Another Location

Airport or City:

Trip Planner

Search our weather history database for the weather conditions in past years. The results will help you decide how hot, cold, wet, or windy it might be!

Date:

Astronomy

Nov. 07, 2014 Rise Set
Actual Time 7:03 AM PST 4:40 PM PST
Civil Twilight 6:30 AM PST 5:13 PM PST
Nautical Twilight 5:52 AM PST 5:50 PM PST
Astronomical Twilight 5:16 AM PST 6:27 PM PST
Moon 5:35 PM PST (11/7) 7:45 AM PST (11/7)
Length of Visible Light 10h 43m
Length of Day
9h 37m
Full, 99% of the Moon is Illuminated
Nov 7
Full
Nov 14
Last Quarter
Nov 22
New
Nov 29
First Quarter
Dec 6
Full

Hourly Weather History & Observations

Time (PST) Temp. Windchill Dew Point Humidity Pressure Visibility Wind Dir Wind Speed Gust Speed Precip Events Conditions
12:15 AM 50.0 °F - 46.4 °F 87% 30.33 in 10.0 mi SE 4.6 mph - N/A   Overcast
12:35 AM 50.0 °F - 44.6 °F 82% 30.33 in 10.0 mi Calm Calm - N/A   Overcast
12:55 AM 50.0 °F - 44.6 °F 82% 30.33 in 10.0 mi Calm Calm - N/A   Overcast
1:15 AM 48.2 °F - 44.6 °F 87% 30.34 in 10.0 mi Calm Calm - N/A   Overcast
1:35 AM 48.2 °F - 44.6 °F 87% 30.35 in 10.0 mi Calm Calm - N/A   Overcast
1:55 AM 46.4 °F 45.2 °F 42.8 °F 87% 30.36 in 1.0 mi North 3.5 mph - N/A   Overcast
2:15 AM 46.4 °F - 42.8 °F 87% 30.36 in 0.5 mi Calm Calm - N/A   Overcast
2:35 AM 46.4 °F 43.5 °F 42.8 °F 87% 30.37 in 0.2 mi NNE 5.8 mph - N/A   Overcast
2:55 AM 42.8 °F - 39.2 °F 87% 30.37 in 0.5 mi Calm Calm - N/A   Overcast
3:15 AM 42.8 °F 40.1 °F 39.2 °F 87% 30.37 in 0.2 mi North 4.6 mph - N/A   Overcast
3:35 AM 44.6 °F 42.2 °F 41.0 °F 87% 30.38 in 0.2 mi North 4.6 mph - N/A   Overcast
3:55 AM 44.6 °F 43.1 °F 41.0 °F 87% 30.38 in 0.2 mi North 3.5 mph - N/A   Overcast
4:15 AM 44.6 °F 43.1 °F 41.0 °F 87% 30.38 in 0.2 mi North 3.5 mph - N/A   Overcast
4:35 AM 44.6 °F - 42.8 °F 93% 30.39 in 0.2 mi Calm Calm - N/A   Overcast
4:55 AM 44.6 °F 42.2 °F 41.0 °F 87% 30.40 in 0.5 mi NNE 4.6 mph - N/A   Overcast
5:15 AM 44.6 °F - 41.0 °F 87% 30.41 in 0.8 mi Calm Calm - N/A   Overcast
5:35 AM 42.8 °F - 39.2 °F 87% 30.42 in 0.5 mi Calm Calm - N/A   Overcast
5:55 AM 42.8 °F - 39.2 °F 87% 30.43 in 0.5 mi Calm Calm - N/A   Overcast
6:15 AM 42.8 °F - 39.2 °F 87% 30.44 in 0.8 mi Calm Calm - N/A   Overcast
6:35 AM 42.8 °F - 39.2 °F 87% 30.45 in 0.5 mi Calm Calm - N/A   Overcast
6:55 AM 42.8 °F - 39.2 °F 87% 30.46 in 4.0 mi Calm Calm - N/A   Overcast
7:15 AM 42.8 °F - 39.2 °F 87% 30.47 in 10.0 mi Calm Calm - N/A   Overcast
7:35 AM 44.6 °F - 41.0 °F 87% 30.48 in 8.0 mi Calm Calm - N/A   Overcast
7:55 AM 44.6 °F - 39.2 °F 81% 30.48 in 10.0 mi Calm Calm - N/A   Mostly Cloudy
8:15 AM 42.8 °F - 39.2 °F 87% 30.49 in 6.0 mi Calm Calm - N/A   Mostly Cloudy
8:35 AM 42.8 °F - 39.2 °F 87% 30.49 in 10.0 mi Calm Calm - N/A   Partly Cloudy
8:55 AM 42.8 °F 41.1 °F 39.2 °F 87% 30.50 in 10.0 mi North 3.5 mph - N/A   Clear
9:15 AM 44.6 °F 43.1 °F 41.0 °F 87% 30.51 in 10.0 mi NE 3.5 mph - N/A   Scattered Clouds
9:35 AM 46.4 °F 43.5 °F 42.8 °F 87% 30.51 in 10.0 mi NNE 5.8 mph - N/A   Clear
9:55 AM 46.4 °F 44.3 °F 42.8 °F 87% 30.51 in 10.0 mi North 4.6 mph - N/A   Clear
10:15 AM 48.2 °F - 42.8 °F 82% 30.51 in 10.0 mi NNE 4.6 mph - N/A   Clear
10:35 AM 50.0 °F - 44.6 °F 82% 30.51 in 10.0 mi North 5.8 mph - N/A   Clear
10:55 AM 50.0 °F - 44.6 °F 82% 30.51 in 10.0 mi North 4.6 mph - N/A   Clear
11:15 AM 51.8 °F - 44.6 °F 76% 30.51 in 10.0 mi North 4.6 mph - N/A   Clear
11:35 AM 53.6 °F - 44.6 °F 72% 30.50 in 6.0 mi North 5.8 mph - N/A   Clear
11:55 AM 53.6 °F - 44.6 °F 72% 30.49 in 10.0 mi North 6.9 mph - N/A   Clear
12:15 PM 55.4 °F - 42.8 °F 63% 30.49 in 10.0 mi NNW 6.9 mph - N/A   Clear
12:35 PM 55.4 °F - 42.8 °F 63% 30.48 in 10.0 mi NNW 4.6 mph - N/A   Clear
12:55 PM 57.2 °F - 44.6 °F 63% 30.46 in 10.0 mi NW 8.1 mph - N/A   Clear
1:15 PM 57.2 °F - 44.6 °F 63% 30.46 in 10.0 mi WNW 8.1 mph - N/A   Clear
1:35 PM 55.4 °F - 42.8 °F 63% 30.45 in 10.0 mi NW 8.1 mph - N/A   Clear
1:55 PM 55.4 °F - 44.6 °F 67% 30.45 in 10.0 mi WNW 8.1 mph - N/A   Clear
2:15 PM 55.4 °F - 42.8 °F 63% 30.45 in 10.0 mi WNW 9.2 mph - N/A   Clear
2:35 PM 55.4 °F - 41.0 °F 58% 30.44 in 10.0 mi WNW 8.1 mph - N/A   Clear
2:55 PM 55.4 °F - 44.6 °F 67% 30.44 in 10.0 mi WNW 6.9 mph - N/A   Clear
3:15 PM 55.4 °F - 42.8 °F 63% 30.44 in 10.0 mi WNW 10.4 mph - N/A   Clear
3:35 PM 53.6 °F - 41.0 °F 62% 30.44 in 10.0 mi WNW 10.4 mph - N/A   Clear
3:55 PM 53.6 °F - 39.2 °F 58% 30.43 in 10.0 mi NW 6.9 mph - N/A   Clear
4:15 PM 51.8 °F - 39.2 °F 62% 30.44 in 10.0 mi NW 8.1 mph - N/A   Clear
4:35 PM 50.0 °F - 39.2 °F 66% 30.44 in 10.0 mi NW 5.8 mph - N/A   Clear
4:55 PM 48.2 °F - 39.2 °F 71% 30.44 in 10.0 mi NW 4.6 mph - N/A   Clear
5:15 PM 46.4 °F 43.5 °F 37.4 °F 71% 30.43 in 10.0 mi NNW 5.8 mph - N/A   Clear
5:35 PM 44.6 °F - 37.4 °F 76% 30.43 in 10.0 mi Calm Calm - N/A   Clear
5:55 PM 46.4 °F - 39.2 °F 76% 30.44 in 10.0 mi Calm Calm - N/A   Clear
6:15 PM 44.6 °F - 37.4 °F 76% 30.44 in 10.0 mi Calm Calm - N/A   Clear
6:35 PM 41.0 °F - 35.6 °F 81% 30.43 in 10.0 mi Calm Calm - N/A   Clear
6:55 PM 42.8 °F 39.3 °F 37.4 °F 81% 30.42 in 10.0 mi North 5.8 mph - N/A   Clear
7:15 PM 41.0 °F 36.4 °F 37.4 °F 87% 30.42 in 10.0 mi North 6.9 mph - N/A   Clear
7:35 PM 42.8 °F 39.3 °F 37.4 °F 81% 30.41 in 10.0 mi North 5.8 mph - N/A   Clear
7:55 PM 42.8 °F 40.1 °F 37.4 °F 81% 30.41 in 10.0 mi North 4.6 mph - N/A   Clear
8:15 PM 39.2 °F 35.9 °F 35.6 °F 87% 30.41 in 10.0 mi North 4.6 mph - N/A   Clear
8:35 PM 39.2 °F 35.9 °F 35.6 °F 87% 30.41 in 10.0 mi North 4.6 mph - N/A   Clear
8:55 PM 41.0 °F 39.0 °F 37.4 °F 87% 30.42 in 8.0 mi North 3.5 mph - N/A   Clear
9:15 PM 39.2 °F - 35.6 °F 87% 30.43 in 3.0 mi Calm Calm - N/A   Clear
9:35 PM 41.0 °F 38.0 °F 37.4 °F 87% 30.42 in 9.0 mi North 4.6 mph - N/A   Clear
9:55 PM 39.2 °F - 35.6 °F 87% 30.43 in 3.0 mi Calm Calm - N/A   Clear
10:15 PM 37.4 °F 33.8 °F 33.8 °F 87% 30.42 in 8.0 mi North 4.6 mph - N/A   Clear
10:35 PM 39.2 °F 37.0 °F 37.4 °F 93% 30.41 in 8.0 mi North 3.5 mph - N/A   Clear
10:55 PM 37.4 °F - 33.8 °F 87% 30.41 in 5.0 mi Calm Calm - N/A   Clear
11:15 PM 37.4 °F - 33.8 °F 87% 30.41 in 2.0 mi Calm Calm - N/A   Clear
11:35 PM 37.4 °F - 33.8 °F 87% 30.41 in 5.0 mi Calm Calm - N/A   Clear
11:55 PM 39.2 °F - 35.6 °F 87% 30.41 in 10.0 mi Calm Calm - N/A   Clear